GW1508 Weather Reports


time (UTC)temp
C
wind
direction
speed
KPH
gust
KPH
rain 1hr
cm
rain 24hr
cm
rain mn
cm
humidity
%
barometer
mb
20260903085825 17 346 0.0 1.6 0.00 0.00 0.00 71 1025.0
20260903082827 17 315 0.0 9.7 0.00 0.00 0.00 53 1024.8
20260903081324 17 112 1.6 8.0 0.00 0.00 0.00 51 1025.0
20260903075815 17 116 3.2 8.0 0.00 0.00 0.00 52 1024.7
20260903072819 16 129 3.2 14.5 0.00 0.00 0.00 54 1025.0
20260903065827 15 135 4.8 14.5 0.00 0.00 0.00 58 1025.0
20260903064317 15 155 0.0 9.7 0.00 0.00 0.00 61 1024.9
20260903061317 13 215 1.6 9.7 0.00 0.00 0.00 64 1025.0
20260903055811 12 121 0.0 6.4 0.00 0.00 0.00 70 1025.0
20260903052818 13 251 1.6 9.7 0.00 0.00 0.00 68 1024.7
20260903051310 13 233 1.6 11.3 0.00 0.00 0.00 68 1024.7
20260903044318 12 191 3.2 12.9 0.00 0.00 0.00 88 1024.8
20260903041326 12 194 4.8 11.3 0.00 0.00 0.00 76 1024.7
20260903035819 12 236 3.2 17.7 0.00 0.00 0.00 82 1025.0
20260903034311 12 213 3.2 12.9 0.00 0.00 0.00 82 1025.1
20260903031326 11 162 3.2 9.7 0.00 0.00 0.00 93 1025.4
20260903025815 11 238 3.2 11.3 0.00 0.00 0.00 93 1025.7
20260903022822 9 252 4.8 11.3 0.00 0.00 0.00 93 1026.0
20260903021321 1 234 0.0 0.0 0.00 0.00 0.00 90 1026.0
20260903015814 1 234 0.0 0.0 0.00 0.00 0.00 88 1025.9
20260903012818 3 234 0.0 0.0 0.00 0.00 0.00 85 1026.4
20260903011309 4 234 0.0 0.0 0.00 0.00 0.00 84 1026.2
20260903004321 7 234 0.0 0.0 0.00 0.00 0.00 81 1026.0
20260903001310 11 234 0.0 0.0 0.00 0.00 0.00 86 1025.9
20260902234324 12 214 0.0 8.0 0.00 0.00 0.00 95 1026.4
20260902231327 11 221 3.2 11.3 0.00 0.00 0.00 93 1026.8
20260902225816 8 236 0.0 3.2 0.00 0.00 0.00 93 1027.0
20260902222826 7 212 1.6 9.7 0.00 0.00 0.00 94 1027.4
20260902215827 1 95 0.0 0.0 0.00 0.00 0.00 94 1027.3
20260902211326 2 95 0.0 0.0 0.00 0.00 0.00 92 1026.6
20260902204321 2 95 0.0 0.0 0.00 0.00 0.00 92 1026.3
20260902195826 3 95 0.0 0.0 0.00 0.00 0.00 89 1026.4
20260902194325 4 95 0.0 0.0 0.00 0.00 0.00 87 1026.2
20260902191330 6 95 0.0 0.0 0.00 0.00 0.00 85 1025.8
20260902185825 7 95 0.0 0.0 0.00 0.00 0.00 85 1025.7
20260902182829 10 95 0.0 0.0 0.00 0.00 0.00 84 1025.1
20260902181331 11 95 0.0 0.0 0.00 0.00 0.00 89 1024.9
20260902175823 12 95 0.0 1.6 0.00 0.00 0.00 93 1024.8
20260902174316 12 96 0.0 0.0 0.00 0.00 0.00 92 1024.8
20260902171326 13 96 0.0 0.0 0.00 0.00 0.00 89 1024.7
20260902165825 14 96 0.0 3.2 0.00 0.00 0.00 88 1024.8
20260902161329 15 64 0.0 1.6 0.00 0.00 0.00 86 1024.6
20260902155825 15 69 0.0 3.2 0.00 0.00 0.00 86 1024.5
20260902154324 15 27 0.0 1.6 0.00 0.00 0.00 86 1024.5
20260902151329 14 66 0.0 3.2 0.00 0.00 0.00 87 1024.7
20260902145821 14 73 0.0 3.2 0.00 0.00 0.00 86 1024.8
20260902144314 15 74 0.0 8.0 0.00 0.00 0.00 83 1024.9
20260902141326 16 96 4.8 16.1 0.00 0.00 0.00 79 1025.0
20260902135824 16 74 6.4 12.9 0.00 0.00 0.00 80 1025.0
20260902134319 16 17 1.6 12.9 0.00 0.00 0.00 82 1025.2
20260902131326 16 260 0.0 12.9 0.00 0.00 0.00 83 1025.3
20260902125825 16 25 1.6 11.3 0.00 0.00 0.00 83 1025.2
20260902122833 16 49 4.8 9.7 0.00 0.00 0.00 80 1025.4
20260902121324 16 5 3.2 11.3 0.00 0.00 0.00 81 1025.4
20260902115817 16 65 1.6 11.3 0.00 0.00 0.00 81 1025.6
20260902114317 16 99 0.0 12.9 0.00 0.00 0.00 82 1025.7
20260902111324 15 74 1.6 8.0 0.00 0.00 0.00 85 1026.0
20260902105819 16 88 3.2 11.3 0.00 0.00 0.00 82 1026.0
20260902102824 15 282 0.0 8.0 0.00 0.00 0.00 86 1026.4
20260902101316 15 23 3.2 9.7 0.00 0.00 0.00 84 1026.5
20260902095815 15 103 0.0 9.7 0.00 0.00 0.00 86 1026.8
20260902092839 15 113 0.0 6.4 0.00 0.00 0.00 86 1026.4